[[{"header":{"parameterUnit":"m.s-1","parameterCategory":1,"la1":30.2992,"la2":30.254,"lo1":-89.0895,"lo2":-89.0443,"dy":0.0025,"dx":0.0025,"nx":19,"ny":19,"refTime":"2026-04-24T21:00:00:Z","depth":0,"parameterNumber":2,"parameterNumberName":"U-component_of_WINDS"},"data":[0,0,0,0.0474,0.0477,0.064,0.0641,0.0842,0.0844,0,0,0,0,0,0,0,0,0,0,0,0.042,0.0422,0.0474,0.0477,0.064,0.0641,0.0842,0.0844,0,0,0,0,0,0,0,0,0,0,0,0.042,0.0421,0.0423,0.0478,0.064,0.0641,0.0841,0.0721,0,0,0,0,0,0,0,0,0,0,0.0564,0.051,0.0421,0.0423,0.0479,0.064,0.0641,0.0715,0.0729,0.0765,0,0.0795,0,0.0822,0.0856,0.0857,0,0,0,0.0482,0.0499,0.0547,0.0423,0.048,0.064,0.0568,0.0723,0.0738,0.0782,0.0798,0.0805,0.0825,0.0858,0.0859,0.1048,0.1049,0,0,0.0473,0.0447,0.0537,0.0556,0.053,0.0563,0.0573,0.0732,0.0748,0.0798,0.081,0.0829,0.0859,0.086,0.1048,0.1049,0,0,0,0.0444,0.0441,0.0486,0.0548,0.0578,0.0567,0.0579,0.0741,0.0757,0.0812,0.0831,0.086,0.0862,0.1047,0.1048,0.1056,0,0,0,0.0439,0.0424,0.0481,0.0468,0.0575,0.0661,0.0584,0.0746,0.0765,0.083,0.086,0.0864,0.1046,0.1048,0.1054,0.1064,0,0,0,0.0412,0.0421,0.0443,0.0466,0.0535,0.0659,0.0685,0.0751,0.0776,0.0857,0.0865,0.1046,0.1047,0.1053,0.1062,0.1105,0,0,0,0.0376,0.0449,0.0442,0.0532,0.0533,0.0662,0.0684,0.0783,0.0853,0.0861,0.1047,0.1048,0.1052,0.106,0.1103,0.1137,0.1148,0,0,0.0455,0.0458,0.0513,0.0511,0.0634,0.064,0.0765,0.0855,0.0887,0.0993,0.0998,0.1055,0.1062,0.1105,0.1224,0.1233,0,0,0,0.0529,0.0567,0.0606,0.0671,0.0739,0.0799,0.0872,0.0904,0.0995,0.0936,0.1084,0.1089,0.1115,0.1132,0.114,0.1164,0.1055,0.1055,0.1055,0.0605,0.0639,0.0731,0.0785,0.0848,0.092,0.0974,0.1031,0.105,0.1084,0.1116,0.1183,0.1203,0.1208,0.1233,0.1137,0.1137,0.1137,0.1137,0.0722,0.0782,0.0802,0.0899,0.0935,0.1017,0.1089,0.1099,0.118,0.1163,0.1188,0.1166,0.1217,0.124,0.1138,0.1138,0.1138,0.1137,0.1137,0.0775,0.0809,0.0847,0.0942,0.1012,0.1065,0.1141,0.1172,0.1202,0.1227,0.1262,0.1262,0.1265,0.1241,0.1242,0.1242,0.1242,0.1242,0.1242,0.0815,0.0856,0.0916,0.0993,0.1038,0.11,0.1172,0.1217,0.1275,0.1292,0.1292,0.1306,0.1216,0.1192,0.1246,0.1246,0.1245,0.1245,0.1245,0.092,0.09,0.0993,0.1037,0.1129,0.1195,0.1233,0.1321,0.1363,0.1399,0.1408,0.1336,0.1342,0.1336,0.1317,0.14,0.14,0.14,0.14,0.0963,0.0969,0.1069,0.1137,0.1208,0.1251,0.1353,0.1409,0.1465,0.1492,0.1485,0.1462,0.1454,0.1465,0.1456,0.1438,0.1551,0.1551,0.1551,0.1029,0.1043,0.1124,0.1176,0.125,0.1312,0.1409,0.1487,0.1546,0.1558,0.1514,0.1508,0.1471,0.1457,0.1468,0.1454,0.1422,0,0]},{"header":{"parameterUnit":"m.s-1","parameterCategory":1,"la1":30.2992,"la2":30.254,"lo1":-89.0895,"lo2":-89.0443,"dy":0.0025,"dx":0.0025,"nx":19,"ny":19,"refTime":"2026-04-24T21:00:00:Z","depth":0,"parameterNumber":3,"parameterNumberName":"V-component_of_WINDS"},"data":[0,0,0,1.3379,1.338,1.3438,1.3438,1.3492,1.3493,0,0,0,0,0,0,0,0,0,0,0,1.3352,1.3352,1.3379,1.338,1.3438,1.3438,1.3492,1.3493,0,0,0,0,0,0,0,0,0,0,0,1.3352,1.3352,1.3352,1.338,1.3438,1.3438,1.3492,1.3455,0,0,0,0,0,0,0,0,0,0,1.3402,1.3368,1.3352,1.3352,1.3381,1.3438,1.3438,1.3454,1.3457,1.3458,0,1.3458,0,1.3476,1.3495,1.3495,0,0,0,1.3387,1.3364,1.3389,1.3352,1.3381,1.3437,1.3414,1.3456,1.346,1.3463,1.3459,1.3461,1.3477,1.3495,1.3496,1.348,1.3479,0,0,1.3384,1.3356,1.3386,1.3392,1.3383,1.3412,1.3415,1.3459,1.3452,1.3459,1.3463,1.3478,1.3496,1.3496,1.348,1.348,0,0,0,1.337,1.3354,1.3378,1.3389,1.3401,1.3413,1.3417,1.345,1.346,1.3464,1.3479,1.3496,1.3496,1.3481,1.348,1.3432,0,0,0,1.3368,1.3346,1.3376,1.336,1.34,1.3426,1.3407,1.3457,1.3463,1.3478,1.3496,1.3497,1.3481,1.348,1.3434,1.3413,0,0,0,1.3351,1.3344,1.3349,1.3358,1.3382,1.3426,1.3439,1.3459,1.3471,1.3495,1.3497,1.3481,1.348,1.3436,1.3417,1.3399,0,0,0,1.3325,1.3305,1.3348,1.3332,1.3381,1.3397,1.344,1.3452,1.3467,1.3496,1.3481,1.348,1.3437,1.3419,1.3401,1.3378,1.3367,0,0,1.3285,1.33,1.3293,1.3332,1.3333,1.3391,1.3384,1.3424,1.3451,1.3468,1.3468,1.3433,1.3417,1.34,1.3315,1.3306,0,0,0,1.327,1.3264,1.3271,1.3284,1.3315,1.3339,1.3382,1.3397,1.3413,1.3455,1.3425,1.3416,1.3407,1.3397,1.3389,1.3381,1.3475,1.3475,1.3475,1.3172,1.3209,1.3199,1.3242,1.3255,1.33,1.3313,1.334,1.3373,1.3365,1.337,1.3314,1.3302,1.3296,1.3288,1.3363,1.3363,1.3362,1.3362,1.3115,1.3112,1.3157,1.3163,1.3202,1.3207,1.325,1.3273,1.3282,1.3314,1.3308,1.3338,1.3285,1.328,1.3359,1.336,1.336,1.336,1.3361,1.3053,1.3057,1.3077,1.3099,1.3112,1.3157,1.3164,1.3199,1.3232,1.3227,1.3234,1.3235,1.3238,1.3228,1.3228,1.3228,1.3228,1.3227,1.3227,1.2979,1.3003,1.3005,1.3036,1.3048,1.307,1.3115,1.3128,1.3151,1.3176,1.3176,1.3208,1.3274,1.3288,1.3224,1.3225,1.3225,1.3226,1.3226,1.2904,1.2927,1.2929,1.2942,1.2981,1.299,1.3036,1.3059,1.3075,1.3077,1.3112,1.3155,1.3172,1.3179,1.319,1.3105,1.3105,1.3105,1.3105,1.2849,1.2862,1.2873,1.289,1.2912,1.2954,1.2953,1.2988,1.3028,1.3039,1.3057,1.3077,1.3082,1.3096,1.3104,1.3116,1.3014,1.3014,1.3014,1.2803,1.282,1.2814,1.2854,1.2887,1.2913,1.2914,1.2931,1.298,1.3011,1.3049,1.3052,1.3085,1.3094,1.3122,1.3134,1.3156,0,0]}]]